�������l�o���
Date,Time,MP-1(��Sv/h),MP-2(��Sv/h),MP-3(��Sv/h),MP-4(��Sv/h),MP-5(��Sv/h),MP-6(��Sv/h),MP-7(��Sv/h),MP-8(��Sv/h),����,����(m/s),���J
2023/09/04,00:00,0.554,0.839,0.514,1.051,0.758,0.326,0.590,0.545,�k�k��,3.3,��
2023/09/04,00:10,0.555,0.840,0.513,1.052,0.758,0.326,0.592,0.545,�k�k��,3.9,��
2023/09/04,00:20,0.555,0.839,0.512,1.049,0.756,0.327,0.591,0.546,�k�k��,3.4,�L
2023/09/04,00:30,0.554,0.837,0.515,1.050,0.756,0.327,0.590,0.546,�k�k��,3.4,�L
2023/09/04,00:40,0.554,0.836,0.514,1.052,0.756,0.327,0.591,0.545,�k�k��,3.2,�L
2023/09/04,00:50,0.554,0.836,0.510,1.048,0.756,0.327,0.591,0.544,�k,3.0,�L
2023/09/04,01:00,0.553,0.837,0.512,1.051,0.756,0.326,0.591,0.546,�k�k��,2.3,��
2023/09/04,01:10,0.553,0.837,0.511,1.050,0.755,0.328,0.592,0.545,�k�k��,3.0,�L
2023/09/04,01:20,0.552,0.836,0.510,1.051,0.754,0.327,0.591,0.546,�k,2.6,�L
2023/09/04,01:30,0.552,0.834,0.512,1.050,0.754,0.329,0.591,0.545,�k,2.9,��
2023/09/04,01:40,0.553,0.837,0.509,1.049,0.754,0.327,0.592,0.545,�k,2.9,��
2023/09/04,01:50,0.554,0.835,0.511,1.050,0.754,0.326,0.592,0.546,�k,3.8,��
2023/09/04,02:00,0.554,0.838,0.511,1.050,0.754,0.327,0.591,0.544,�k,2.5,��
2023/09/04,02:10,0.552,0.834,0.512,1.051,0.752,0.327,0.591,0.544,�k�k��,2.8,��
2023/09/04,02:20,0.553,0.836,0.512,1.050,0.754,0.326,0.592,0.546,�k�k��,3.0,��
2023/09/04,02:30,0.554,0.833,0.511,1.051,0.755,0.326,0.590,0.545,�k�k��,3.2,��
2023/09/04,02:40,0.554,0.838,0.512,1.051,0.753,0.328,0.592,0.544,�k�k��,2.8,��
2023/09/04,02:50,0.553,0.837,0.511,1.051,0.754,0.326,0.591,0.546,�k�k��,2.6,��
2023/09/04,03:00,0.553,0.836,0.512,1.047,0.756,0.328,0.592,0.546,�k,2.9,��
2023/09/04,03:10,0.553,0.836,0.512,1.051,0.755,0.327,0.591,0.547,�k,2.6,�L
2023/09/04,03:20,0.554,0.837,0.511,1.050,0.754,0.328,0.591,0.545,�k,2.8,�L
2023/09/04,03:30,0.553,0.836,0.510,1.049,0.754,0.327,0.590,0.545,�k,2.6,�L
2023/09/04,03:40,0.552,0.834,0.510,1.049,0.755,0.328,0.591,0.545,�k,2.8,�L
2023/09/04,03:50,0.552,0.836,0.513,1.050,0.755,0.327,0.592,0.545,�k�k��,3.4,�L
2023/09/04,04:00,0.553,0.835,0.512,1.048,0.754,0.327,0.590,0.544,�k�k��,3.4,�L
2023/09/04,04:10,0.552,0.832,0.510,1.048,0.753,0.326,0.591,0.544,�k�k��,3.6,�L
2023/09/04,04:20,0.550,0.831,0.510,1.049,0.753,0.327,0.589,0.544,�k�k��,4.5,�L
2023/09/04,04:30,0.549,0.829,0.509,1.048,0.753,0.326,0.589,0.545,�k,4.4,�L
2023/09/04,04:40,0.550,0.829,0.510,1.048,0.750,0.326,0.590,0.544,�k,5.0,�L
2023/09/04,04:50,0.549,0.829,0.509,1.049,0.750,0.327,0.590,0.544,�k,4.0,�L
2023/09/04,05:00,0.548,0.829,0.510,1.050,0.751,0.325,0.592,0.545,�k,4.9,�L
2023/09/04,05:10,0.548,0.827,0.508,1.050,0.752,0.327,0.589,0.545,�k,4.9,�L
2023/09/04,05:20,0.546,0.827,0.508,1.050,0.751,0.325,0.590,0.545,�k,4.8,��
2023/09/04,05:30,0.548,0.826,0.508,1.049,0.753,0.326,0.590,0.545,�k,4.7,��
2023/09/04,05:40,0.546,0.825,0.509,1.050,0.751,0.325,0.589,0.544,�k,4.4,�L
2023/09/04,05:50,0.547,0.826,0.507,1.049,0.750,0.326,0.589,0.544,�k,4.7,�L
2023/09/04,06:00,0.548,0.826,0.509,1.048,0.751,0.325,0.588,0.544,�k�k��,5.3,�L
2023/09/04,06:10,0.544,0.824,0.506,1.046,0.747,0.325,0.588,0.542,�k�k��,5.8,�L
2023/09/04,06:20,0.546,0.822,0.506,1.045,0.743,0.323,0.584,0.541,�k�k��,6.3,�L
2023/09/04,06:30,0.544,0.819,0.506,1.043,0.743,0.323,0.584,0.543,�k��,6.2,�L
2023/09/04,06:40,0.543,0.818,0.504,1.042,0.740,0.321,0.584,0.542,�k��,6.9,�L
2023/09/04,06:50,0.542,0.817,0.503,1.039,0.736,0.321,0.584,0.541,�k��,6.3,�L
2023/09/04,07:00,0.540,0.814,0.501,1.038,0.735,0.320,0.583,0.539,���k��,7.0,�L
2023/09/04,07:10,0.536,0.808,0.500,1.030,0.731,0.318,0.581,0.539,��,6.7,�L
2023/09/04,07:20,0.534,0.804,0.497,1.026,0.730,0.317,0.581,0.539,��,5.7,�L
2023/09/04,07:30,0.533,0.803,0.498,1.026,0.728,0.319,0.580,0.536,��,7.8,�L
2023/09/04,07:40,0.534,0.803,0.498,1.025,0.728,0.318,0.580,0.537,���쓌,6.8,�L
2023/09/04,07:50,0.534,0.801,0.499,1.023,0.725,0.319,0.579,0.536,��,5.9,�L
2023/09/04,08:00,0.533,0.796,0.494,1.022,0.723,0.317,0.578,0.535,��,6.3,�L
2023/09/04,08:10,0.524,0.786,0.488,1.011,0.717,0.316,0.575,0.535,���k��,5.9,�L
2023/09/04,08:20,0.527,0.789,0.491,1.008,0.718,0.317,0.576,0.535,���k��,4.9,�L
2023/09/04,08:30,0.525,0.787,0.489,1.004,0.716,0.315,0.573,0.532,���k��,6.1,�L
2023/09/04,08:40,0.523,0.782,0.489,1.001,0.714,0.313,0.573,0.532,���k��,5.5,�L
2023/09/04,08:50,0.523,0.782,0.488,0.999,0.712,0.313,0.573,0.530,���k��,5.4,�L
2023/09/04,09:00,0.522,0.782,0.487,0.998,0.712,0.314,0.573,0.530,���k��,5.9,�L
2023/09/04,09:10,0.522,0.782,0.486,0.996,0.708,0.313,0.572,0.531,���k��,5.9,�L
2023/09/04,09:20,0.524,0.782,0.489,0.999,0.710,0.314,0.573,0.530,�k��,4.3,�L
2023/09/04,09:30,0.523,0.781,0.487,0.996,0.710,0.312,0.572,0.531,�k�k��,3.6,�L
2023/09/04,09:40,0.522,0.781,0.486,0.992,0.707,0.313,0.572,0.529,�k�k��,3.3,�L
2023/09/04,09:50,0.520,0.777,0.485,0.987,0.700,0.311,0.567,0.526,�k��,4.5,�L
2023/09/04,10:00,0.512,0.769,0.482,0.980,0.694,0.308,0.566,0.525,�k,5.2,�L
2023/09/04,10:10,0.508,0.762,0.482,0.976,0.693,0.308,0.566,0.522,�k�k��,6.0,�L
2023/09/04,10:20,0.512,0.763,0.480,0.973,0.688,0.307,0.564,0.522,�k�k��,7.2,�L
2023/09/04,10:30,0.512,0.764,0.481,0.976,0.688,0.307,0.566,0.521,�k��,7.4,�L
2023/09/04,10:40,0.502,0.753,0.474,0.966,0.680,0.304,0.561,0.520,�k,9.2,�L
2023/09/04,10:50,0.507,0.757,0.478,0.970,0.686,0.307,0.564,0.523,�k�k��,8.7,�L
2023/09/04,11:00,0.502,0.750,0.473,0.959,0.667,0.296,0.563,0.520,���k��,8.5,�L
2023/09/04,11:10,0.500,0.751,0.472,0.955,0.657,0.242,0.555,0.511,���k��,4.0,�L
2023/09/04,11:20,0.502,0.746,0.468,0.945,0.646,0.238,0.556,0.511,��,8.2,�L
2023/09/04,11:30,0.503,0.749,0.468,0.941,0.623,0.241,0.558,0.517,���쓌,6.9,�L
2023/09/04,11:40,0.513,0.762,0.476,0.962,0.646,0.276,0.562,0.520,�쓌,5.7,�L
2023/09/04,11:50,0.513,0.765,0.477,0.968,0.653,0.302,0.563,0.521,���쓌,5.4,�L
2023/09/04,12:00,0.515,0.767,0.479,0.973,0.663,0.311,0.564,0.523,��,6.3,�L
2023/09/04,12:10,0.516,0.767,0.478,0.973,0.662,0.312,0.565,0.524,��,6.4,�L
2023/09/04,12:20,0.514,0.769,0.477,0.972,0.664,0.314,0.565,0.523,���k��,6.0,�L
2023/09/04,12:30,0.515,0.765,0.479,0.971,0.665,0.313,0.565,0.522,���k��,7.0,�L
2023/09/04,12:40,0.512,0.765,0.477,0.970,0.664,0.313,0.565,0.524,-,CALM,�L
2023/09/04,12:50,0.512,0.763,0.476,0.967,0.663,0.314,0.564,0.521,���k��,6.6,�L
2023/09/04,13:00,0.512,0.767,0.477,0.969,0.665,0.314,0.563,0.523,���k��,6.7,�L
2023/09/04,13:10,0.512,0.766,0.476,0.971,0.668,0.315,0.564,0.523,���k��,6.4,�L
2023/09/04,13:20,0.511,0.766,0.476,0.970,0.667,0.314,0.564,0.522,��,4.7,�L
2023/09/04,13:30,0.500,0.744,0.467,0.952,0.647,0.306,0.555,0.514,-,CALM,�L
2023/09/04,13:40,0.502,0.749,0.468,0.950,0.640,0.305,0.556,0.514,-,CALM,�L
2023/09/04,13:50,0.504,0.754,0.471,0.955,0.644,0.308,0.559,0.518,-,CALM,�L
2023/09/04,14:00,0.505,0.753,0.471,0.957,0.647,0.309,0.558,0.519,-,CALM,�L
2023/09/04,14:10,0.503,0.751,0.470,0.955,0.643,0.308,0.558,0.517,-,CALM,�L
2023/09/04,14:20,0.504,0.754,0.472,0.956,0.644,0.308,0.559,0.518,-,CALM,�L
2023/09/04,14:30,0.504,0.753,0.471,0.957,0.645,0.310,0.559,0.518,-,CALM,�L
2023/09/04,14:40,0.505,0.752,0.473,0.956,0.645,0.309,0.558,0.519,-,CALM,�L
2023/09/04,14:50,0.503,0.751,0.471,0.956,0.644,0.307,0.557,0.519,-,CALM,�L
2023/09/04,15:00,0.502,0.750,0.469,0.955,0.643,0.308,0.558,0.519,-,CALM,�L
2023/09/04,15:10,0.503,0.752,0.469,0.954,0.639,0.307,0.558,0.520,��,10.5,�L
2023/09/04,15:20,0.503,0.751,0.471,0.955,0.641,0.307,0.557,0.519,-,CALM,�L
2023/09/04,15:30,0.504,0.751,0.471,0.957,0.639,0.308,0.559,0.520,-,CALM,�L
2023/09/04,15:40,0.502,0.750,0.469,0.956,0.637,0.308,0.557,0.518,-,CALM,�L
2023/09/04,15:50,0.502,0.751,0.470,0.954,0.639,0.308,0.559,0.519,-,CALM,�L
2023/09/04,16:00,0.503,0.751,0.469,0.954,0.637,0.308,0.557,0.519,-,CALM,�L
2023/09/04,16:10,0.502,0.748,0.468,0.953,0.635,0.308,0.557,0.519,-,CALM,�L
2023/09/04,16:20,0.503,0.751,0.471,0.954,0.635,0.308,0.556,0.517,��,6.2,�L
2023/09/04,16:30,0.506,0.754,0.472,0.958,0.638,0.309,0.559,0.519,�쓌,9.7,�L
2023/09/04,16:40,0.504,0.754,0.469,0.956,0.637,0.308,0.558,0.519,���쓌,7.7,�L
2023/09/04,16:50,0.502,0.753,0.470,0.957,0.636,0.309,0.557,0.519,�쓌,6.0,�L
2023/09/04,17:00,0.502,0.752,0.469,0.954,0.633,0.307,0.558,0.518,��,4.7,�L
2023/09/04,17:10,0.502,0.754,0.470,0.957,0.635,0.308,0.557,0.521,��,5.5,�L
2023/09/04,17:20,0.504,0.756,0.472,0.960,0.639,0.309,0.559,0.520,��,5.3,�L
2023/09/04,17:30,0.508,0.758,0.473,0.961,0.641,0.310,0.560,0.520,��,5.7,�L
2023/09/04,17:40,0.510,0.761,0.473,0.963,0.641,0.309,0.560,0.522,���쓌,5.4,�L
2023/09/04,17:50,0.511,0.764,0.475,0.963,0.644,0.310,0.562,0.523,��,6.4,�L
2023/09/04,18:00,0.510,0.763,0.474,0.961,0.644,0.312,0.562,0.522,���쓌,6.8,�L
2023/09/04,18:10,0.509,0.763,0.474,0.964,0.643,0.311,0.561,0.523,���쓌,6.0,�L
2023/09/04,18:20,0.509,0.761,0.474,0.964,0.645,0.312,0.563,0.521,���쓌,6.9,�L
2023/09/04,18:30,0.511,0.762,0.475,0.962,0.645,0.310,0.561,0.523,���쓌,6.8,�L
2023/09/04,18:40,0.510,0.762,0.473,0.962,0.647,0.312,0.561,0.523,���쓌,7.3,�L
2023/09/04,18:50,0.508,0.762,0.474,0.962,0.646,0.311,0.562,0.522,���쓌,6.7,�L
2023/09/04,19:00,0.508,0.761,0.475,0.961,0.647,0.310,0.560,0.522,���쓌,6.0,�L
2023/09/04,19:10,0.507,0.762,0.473,0.963,0.647,0.311,0.561,0.522,�쓌,7.8,�L
2023/09/04,19:20,0.510,0.762,0.473,0.962,0.649,0.310,0.564,0.522,�쓌,6.3,�L
2023/09/04,19:30,0.508,0.760,0.474,0.963,0.650,0.310,0.562,0.523,�쓌,5.4,�L
2023/09/04,19:40,0.508,0.762,0.473,0.961,0.649,0.310,0.562,0.521,�쓌,5.9,�L
2023/09/04,19:50,0.507,0.760,0.474,0.961,0.650,0.311,0.563,0.524,�쓌,7.1,�L
2023/09/04,20:00,0.510,0.763,0.473,0.962,0.652,0.310,0.561,0.524,�쓌,5.9,�L
2023/09/04,20:10,0.510,0.765,0.474,0.964,0.653,0.311,0.566,0.523,�쓌,6.5,�L
2023/09/04,20:20,0.511,0.765,0.475,0.961,0.653,0.312,0.562,0.522,�쓌,6.5,�L
2023/09/04,20:30,0.511,0.765,0.477,0.963,0.655,0.312,0.564,0.523,�쓌,5.8,�L
2023/09/04,20:40,0.510,0.764,0.476,0.965,0.656,0.312,0.564,0.524,�쓌,4.7,�L
2023/09/04,20:50,0.509,0.763,0.475,0.963,0.656,0.311,0.564,0.524,�쓌,4.8,�L
2023/09/04,21:00,0.510,0.766,0.477,0.965,0.657,0.311,0.564,0.522,�쓌,4.7,�L
2023/09/04,21:10,0.511,0.765,0.476,0.963,0.658,0.312,0.564,0.525,�쓌,5.5,��
2023/09/04,21:20,0.512,0.768,0.478,0.964,0.656,0.311,0.564,0.526,�쓌,5.5,��
2023/09/04,21:30,0.511,0.767,0.477,0.965,0.657,0.311,0.565,0.525,��쓌,5.3,��
2023/09/04,21:40,0.511,0.768,0.477,0.966,0.661,0.311,0.565,0.523,��쓌,4.2,�L
2023/09/04,21:50,0.512,0.769,0.476,0.966,0.659,0.312,0.565,0.525,��쓌,5.1,�L
2023/09/04,22:00,0.512,0.770,0.478,0.965,0.661,0.313,0.565,0.525,��쓌,4.9,�L
2023/09/04,22:10,0.514,0.772,0.479,0.966,0.663,0.313,0.565,0.524,��쓌,4.7,�L
2023/09/04,22:20,0.512,0.772,0.479,0.964,0.663,0.313,0.564,0.525,��,4.4,��
2023/09/04,22:30,0.513,0.772,0.478,0.968,0.664,0.312,0.565,0.527,��,4.5,��
2023/09/04,22:40,0.513,0.772,0.479,0.970,0.662,0.312,0.566,0.526,��,3.4,��
2023/09/04,22:50,0.513,0.775,0.479,0.967,0.664,0.312,0.568,0.527,��,3.2,��
2023/09/04,23:00,0.512,0.774,0.480,0.968,0.665,0.313,0.566,0.528,��,3.4,��
2023/09/04,23:10,0.513,0.775,0.478,0.969,0.666,0.314,0.566,0.526,��,3.4,��
2023/09/04,23:20,0.514,0.775,0.478,0.968,0.667,0.313,0.567,0.525,��,2.9,��
2023/09/04,23:30,0.516,0.775,0.479,0.970,0.667,0.313,0.567,0.526,��,3.0,�L
2023/09/04,23:40,0.516,0.774,0.480,0.968,0.667,0.315,0.566,0.526,��,2.5,�L
2023/09/04,23:50,0.515,0.774,0.478,0.968,0.665,0.313,0.567,0.528,��,2.3,��
